User: anonymous   Login
Location: Bittelbronn
(48.4454°N, 8.5870°E)
Time: 07:41:16
(UTC+00:00)
Language:

Nadezhda 1 Rocket - Orbit

View from above orbital plane
View from above orbital plane
View from above satellite
View from above satellite

Ground track
Ground track

The orbit data is extracted from the following two-line orbital elements,

1 20104U 89050B   24203.66017851  .00000091  00000-0  75156-4 0  9992
2 20104  82.9547  48.1927 0044658 124.2907 236.2491 13.77483636761129
Epoch (UTC): 21 July 2024 15:50:39
Eccentricity: 0.0044658
inclination: 82.9547°
perigee height: 940 km
apogee height: 1005 km
right ascension of ascending node: 48.1927°
argument of perigee: 124.2907°
revolutions per day: 13.77483636
mean anomaly at epoch: 236.2491°
orbit number at epoch: 76112

The dashed part of the orbit path shows where the satellite is in the earth's shadow,  

DLR